map of PNR home
PNR - Airport
Location
City:  Pointe Noire, Kouilou, Congo (Republic of)
ICAO:FCPP
IATA:PNR

Details
Type:Airport (Aerodrome, Airfield)
Use:Public/Civil, International (customs port of entry)
Latitude:448'53"S (-4.814721)
Longitude:1153'11"E (11.886389)
Elevation:56 ft (17 m)
Variation:2.24W (WMM2015v2 magnetic declination)
0.17 annual change
Runways:1
Longest:8596 × 148 ft (2620 × 45 m), paved

Time
Time Zone:UTC+1
Local Time:

Weather
METAR:FCPP 041400Z 21005KT 9999 SCT013 BKN023 29/25 Q1009 NOSIG
TAF:FCPP 041100Z 0412/0512 22005KT 9000 SCT018 FEW030CB
BECMG 0419/0421 SCT020

Related Locations
Nearby:
Farthest:PLPA: 12027 mi / 19356 km
Palmyra Island Atoll [Palmyra Airport (Cooper)], UM

Find:

   beyond  
but within

Other Information
Maps:
NOTAMs:
Links:
Sources:

  
  • flag of Congo (Republic of)
  

Sectional Chart

Flight Planning
at skyvector.com

Satellite Image

Google Maps Satellite view

 

Copyright © 2004-2019 Karl L. Swartz. All rights reserved.
The Great Circle Mapper name and logo are trademarks of the Great Circle Mapper.
All other trademarks mentioned herein belong to their respective owners.
Please see credits for attibutions and further copyright information.

  Follow gcmap on Facebook Follow gcmap on Twitter GCmap on LinkedIn

hCard Microformat

Geo Microformat